Regional Weather Roundup
Issued by NWS

Home | Current Version | Previous Version | Graphics & Text | Print | Product List | Glossary On
Versions: 1 2 3 4 5 6 7 8 9 10 11 12 13 14 15 16 17 18 19 20 21 22 23 24 25 26 27 28 29 30 31 32 33 34 35 36 37 38 39 40 41 42 43 44 45 46 47 48 49 50
000
ASUS43 KTOP 220808
RWRKS

WEATHER ROUNDUP FOR KANSAS
NATIONAL WEATHER SERVICE GOODLAND KS
300 AM CDT FRI SEP 22 2017

NOTE:  "FAIR" INDICATES FEW OR NO CLOUDS BELOW 12,000 FEET WITH NO
SIGNIFICANT WEATHER AND/OR OBSTRUCTIONS TO VISIBILITY.

KSZ001>006-013>018-027>032-041>047-220900-
NORTHWEST KANSAS

CITY           SKY/WX    TMP DP  RH WIND       PRES   REMARKS
GOODLAND       CLEAR     65  46  50 S15       29.72R
HAYS           CLEAR     79  68  69 S22G28    29.78R
HILL CITY      CLEAR     80  68  66 S17G31    29.75R
RUSSELL        CLEAR     79  68  69 S22G31    29.78S
$$

KSZ061>065-074>080-084>089-220900-
SOUTHWEST KANSAS

CITY           SKY/WX    TMP DP  RH WIND       PRES   REMARKS
DODGE CITY     CLEAR     77  66  68 S22       29.83R
ELKHART          N/A     69  57  65 S14         N/A
GARDEN CITY    CLEAR     75  64  68 S25G32    29.79S
GREAT BEND     CLEAR     78  69  73 S21       29.82R
LIBERAL        CLEAR     75  61  61 S24       29.82R
PRATT          CLEAR     76  66  71 S16G23    29.85S
$$

KSZ066>073-081>083-090>101-220900-
SOUTHEAST KANSAS

CITY           SKY/WX    TMP DP  RH WIND       PRES   REMARKS
CHANUTE        CLEAR     73  69  87 SE7       29.94S
COFFEYVILLE    CLEAR     72  69  90 SE5       29.92S
HUTCHINSON     CLEAR     78  70  76 S15G24    29.86R
MEDICINE LODGE   N/A     77  67  71 SE9G20    29.85S
NEWTON         CLEAR     76  68  76 S16G23    29.89S
WICHITA INTL   CLEAR     79  70  74 S15       29.88R
WICHITA JABRA  CLEAR     76  70  82 S13       29.89S
WICHITA MCCONL CLEAR     77  67  73 S13       29.89S
WINFIELD       CLEAR     75  70  84 SE10      29.90F
$$

KSZ007>012-019>026-033>040-048>060-102>105-220900-
NORTHEAST KANSAS

CITY           SKY/WX    TMP DP  RH WIND       PRES   REMARKS
CONCORDIA      PTCLDY    79  70  74 S18G30    29.81S
EMPORIA        CLEAR     75  69  81 S17       29.89F
LAWRENCE       CLEAR     77  71  82 SE12      29.90F
MANHATTAN      CLEAR     81  69  67 S14       29.85R
MARYSVILLE     CLEAR     79  70  73 S14       29.84S
OLATHE IND     CLEAR     75  69  81 S10       29.93F
OLATHE EXE     CLEAR     73  70  90 S9        29.94S
SALINA         CLEAR     83  68  60 S20G31    29.83S
TOPEKA BILLARD CLEAR     78  72  81 S7        29.89S
TOPEKA FORBES  CLEAR     77  71  82 S12       29.90S
$$




USA.gov is the U.S. government's official web portal to all federal, state and local government web resources and services.